Location: Unspecified
(43.4354°N, 0.0000°E)
Time: 01:16:27
(UTC+00:00)

Courier 1B - Pass Details

Date: 24 June 2019
Orbit: 963 x 1209 km, 28.3° (Epoch: 21 July)

Event Time Altitude Azimuth Distance (km) Brightness Sun altitude
Rises 20:26:06 0° 250° (WSW) 3,886 11.1 -6.8°
Reaches altitude 10° 20:29:26 10° 236° (WSW) 2,973 10.2 -7.2°
Maximum altitude 20:34:53 23° 188° (S) 2,235 9.1 -7.9°
Enters shadow 20:40:32 10° 140° (SE) 3,090 9.4 -8.7°
Drops below altitude 10° 20:40:32 10° 140° (SE) 3,090 - -8.7°
Sets 20:44:05 0° 127° (SE) 4,078 - -9.1°
